Location: Newark
(45.5000°N, 11.4167°E)
Time: 23:14:58
(UTC+00:00)

Transit 2A Rocket - Pass Details

Date: 31 August 2019
Orbit: 594 x 910 km, 66.7° (Epoch: 17 October)

Event Time Altitude Azimuth Distance (km) Brightness Sun altitude
Rises 00:21:28 0° 331° (NNW) 3,016 8.6 -33.7°
Reaches altitude 10° 00:23:59 10° 339° (NNW) 2,054 7.7 -33.5°
Enters shadow 00:26:06 24° 356° (N) 1,332 6.7 -33.4°
